Flag for United Arab Emirates Weather past 2 weeks in Sharjah, Sharjah, United Arab Emirates

Now
91 °F

Clear.


Feels Like: 108 °F
Forecast: 90 / 104 °F
Wind: 3 mph from Northeast

Location: Sharjah International Airport

Current Time: Aug 23, 2014 at 2:42:13 AM

Latest Report: Aug 23, 2014 at 2:00 AM


Visibility: 10 mi

Pressure: 29.56 "Hg

Humidity: 67%

Dew point: 79 °F

Location of SharjahLocation

Historic Weather in Sharjah — Graph

°F

Sharjah temperature yesterday

Maximum temperature yesterday: 108 °F (at 12:00 PM)
Minimum temperature yesterday: 88 °F (at 6:00 AM)
Average temperature yesterday: 96 °F

Past Weeks' High & Low Weather Summary

 TemperatureHumidityPressure
High117 °F (Aug 16, 1:00 PM)84% (Aug 22, 4:00 AM)29.77 "Hg (Aug 22, 4:00 AM)
Low86 °F (Aug 9, 6:00 AM)10% (Aug 16, 1:00 PM)29.36 "Hg (Aug 8, 4:00 PM)
Average97 °F49%29.53 "Hg
* Reported Aug 8 1:00 AM — Aug 23 1:00 AM, Sharjah, Weather by CustomWeather, © 2014

Note: Actual official high and low records may vary slightly from our data, if they occured in-between our weather recording intervals... More about our weather records

Advertising

Sharjah weather history for previous 24 hours

 ConditionsComfort  
Time TempWeatherWind HumidityBarometerVisibility
1:00 AM
Aug 23
91 °FClear.3 mph67%29.56 "Hg10 mi
12:00 AM93 °FClear.2 mph63%29.56 "Hg10 mi
11:00 PM
Aug 22
93 °FClear.3 mph67%29.56 "Hg10 mi
10:00 PM93 °FPassing clouds.3 mph63%29.56 "HgN/A
9:00 PM95 °FClear.5 mph60%29.53 "Hg10 mi
8:00 PM97 °FClear.5 mph44%29.53 "Hg10 mi
7:00 PM97 °FClear.6 mph50%29.50 "Hg10 mi
6:00 PM100 °FPassing clouds.12 mph47%29.50 "HgN/A
5:00 PM100 °FClear.12 mph47%29.50 "Hg5 mi
4:00 PM102 °FClear.12 mph48%29.50 "Hg4 mi
3:00 PM100 °FClear.15 mph50%29.50 "Hg4 mi
2:00 PM102 °FClear.15 mph48%29.53 "Hg4 mi
1:00 PM106 °FPassing clouds.10 mph45%29.53 "HgN/A
12:00 PM108 °FClear.6 mph30%29.53 "Hg5 mi
11:00 AM104 °FClear.6 mph40%29.56 "Hg5 mi
10:00 AM99 °FClear.6 mph50%29.59 "Hg5 mi
9:00 AM97 °FClear.9 mph56%29.56 "Hg5 mi
8:00 AM91 °FClear.8 mph71%29.56 "Hg4 mi
7:00 AM90 °FHaze.2 mph79%29.56 "Hg3 mi
6:00 AM88 °FHaze.3 mph84%29.53 "Hg3 mi
5:00 AM90 °FClear.3 mph84%29.53 "Hg4 mi
4:00 AM90 °FClear.6 mph84%29.50 "Hg5 mi
3:00 AM90 °FClear.8 mph71%29.50 "Hg5 mi
2:00 AM90 °FClear.6 mph71%29.47 "Hg5 mi
Weather by CustomWeather, © 2014

See weather overviewHow to use our weather pages